Time,TemperatureF,DewpointF,PressureIn,WindDirection,WindDirectionDegrees,WindSpeedMPH,WindSpeedGustMPH,Humidity,HourlyPrecipIn,Conditions,Clouds,dailyrainin,SoftwareType,DateUTC
2013-01-27 00:00:00,12.9,-0.6,30.09,WNW,293,8.0,8.0,54,0.00,,,0.00,Wunderground v.1.12,2013-01-27 05:00:00,
2013-01-27 00:03:00,12.9,-0.6,30.08,WNW,284,8.0,8.0,54,0.00,,,0.00,Wunderground v.1.12,2013-01-27 05:03:00,
2013-01-27 00:04:00,12.9,-0.6,30.08,WNW,297,7.0,7.0,54,0.00,,,0.00,Wunderground v.1.12,2013-01-27 05:04:00,
2013-01-27 00:06:00,12.9,-0.6,30.08,WNW,284,7.0,11.0,54,0.00,,,0.00,Wunderground v.1.12,2013-01-27 05:06:00,
2013-01-27 00:13:00,12.9,-0.6,30.08,West,281,8.0,15.0,54,0.00,,,0.00,Wunderground v.1.12,2013-01-27 05:13:00,
2013-01-27 00:18:00,12.9,-0.6,30.09,WNW,286,6.0,8.0,54,0.00,,,0.00,Wunderground v.1.12,2013-01-27 05:18:00,
2013-01-27 00:23:00,12.9,-0.6,30.09,WNW,293,7.0,7.0,54,0.00,,,0.00,Wunderground v.1.12,2013-01-27 05:23:00,
2013-01-27 00:28:00,13.1,-0.9,30.09,WNW,292,9.0,13.0,53,0.00,,,0.00,Wunderground v.1.12,2013-01-27 05:28:00,
2013-01-27 00:33:00,12.9,-1.0,30.08,NW,305,8.0,9.0,53,0.00,,,0.00,Wunderground v.1.12,2013-01-27 05:33:00,
2013-01-27 00:39:00,12.9,-0.6,30.08,West,281,6.0,10.0,54,0.00,,,0.00,Wunderground v.1.12,2013-01-27 05:39:00,
2013-01-27 00:44:00,13.1,-0.9,30.08,West,271,7.0,7.0,53,0.00,,,0.00,Wunderground v.1.12,2013-01-27 05:44:00,
2013-01-27 00:49:00,13.3,-1.1,30.09,West,265,8.0,8.0,52,0.00,,,0.00,Wunderground v.1.12,2013-01-27 05:49:00,
2013-01-27 00:54:00,13.3,-0.7,30.09,West,281,8.0,8.0,53,0.00,,,0.00,Wunderground v.1.12,2013-01-27 05:54:00,
2013-01-27 00:59:00,13.1,-0.9,30.09,WNW,285,6.0,6.0,53,0.00,,,0.00,Wunderground v.1.12,2013-01-27 05:59:00,
2013-01-27 01:05:00,13.1,-0.9,30.09,West,278,4.0,9.0,53,0.00,,,0.00,Wunderground v.1.12,2013-01-27 06:05:00,
2013-01-27 01:11:00,13.3,-1.1,30.09,WNW,292,6.0,14.0,52,0.00,,,0.00,Wunderground v.1.12,2013-01-27 06:11:00,
2013-01-27 01:16:00,13.5,-0.9,30.09,NW,318,8.0,8.0,52,0.00,,,0.00,Wunderground v.1.12,2013-01-27 06:16:00,
2013-01-27 01:23:00,13.5,-0.9,30.09,WNW,293,6.0,17.0,52,0.00,,,0.00,Wunderground v.1.12,2013-01-27 06:23:00,
2013-01-27 01:28:00,13.3,-0.7,30.09,NW,315,6.0,6.0,53,0.00,,,0.00,Wunderground v.1.12,2013-01-27 06:28:00,
2013-01-27 01:33:00,13.3,-0.7,30.10,WNW,290,5.0,6.0,53,0.00,,,0.00,Wunderground v.1.12,2013-01-27 06:33:00,
2013-01-27 01:38:00,13.5,-0.5,30.10,West,273,6.0,11.0,53,0.00,,,0.00,Wunderground v.1.12,2013-01-27 06:38:00,
2013-01-27 01:44:00,13.5,-0.5,30.10,WNW,289,7.0,7.0,53,0.00,,,0.00,Wunderground v.1.12,2013-01-27 06:44:00,
2013-01-27 01:50:00,13.6,-0.8,30.11,WNW,286,7.0,9.0,52,0.00,,,0.00,Wunderground v.1.12,2013-01-27 06:50:00,
2013-01-27 01:56:00,13.6,-0.4,30.11,WNW,284,8.0,11.0,53,0.00,,,0.00,Wunderground v.1.12,2013-01-27 06:56:00,
2013-01-27 02:01:00,13.6,-0.4,30.11,West,278,8.0,8.0,53,0.00,,,0.00,Wunderground v.1.12,2013-01-27 07:01:00,
2013-01-27 02:08:00,13.5,-0.5,30.11,WNW,292,6.0,7.0,53,0.00,,,0.00,Wunderground v.1.12,2013-01-27 07:08:00,
2013-01-27 02:13:00,13.3,-0.3,30.11,WNW,291,5.0,6.0,54,0.00,,,0.00,Wunderground v.1.12,2013-01-27 07:13:00,
2013-01-27 02:18:00,13.3,-0.7,30.11,West,275,6.0,12.0,53,0.00,,,0.00,Wunderground v.1.12,2013-01-27 07:18:00,
2013-01-27 02:23:00,13.3,-0.3,30.11,WNW,286,5.0,6.0,54,0.00,,,0.00,Wunderground v.1.12,2013-01-27 07:23:00,
2013-01-27 02:29:00,13.5,-0.5,30.11,West,261,4.0,4.0,53,0.00,,,0.00,Wunderground v.1.12,2013-01-27 07:29:00,
2013-01-27 02:34:00,13.5,-0.5,30.13,West,272,5.0,6.0,53,0.00,,,0.00,Wunderground v.1.12,2013-01-27 07:34:00,
2013-01-27 02:40:00,13.3,-0.3,30.13,West,281,6.0,7.0,54,0.00,,,0.00,Wunderground v.1.12,2013-01-27 07:40:00,
2013-01-27 02:46:00,13.5,-0.1,30.13,WNW,294,7.0,7.0,54,0.00,,,0.00,Wunderground v.1.12,2013-01-27 07:46:00,
2013-01-27 02:53:00,13.3,-0.3,30.13,WNW,293,6.0,18.0,54,0.00,,,0.00,Wunderground v.1.12,2013-01-27 07:53:00,
2013-01-27 02:58:00,13.6,0.0,30.13,West,275,9.0,13.0,54,0.00,,,0.00,Wunderground v.1.12,2013-01-27 07:58:00,
2013-01-27 03:03:00,13.8,-0.2,30.13,West,278,8.0,11.0,53,0.00,,,0.00,Wunderground v.1.12,2013-01-27 08:03:00,
2013-01-27 03:08:00,13.6,0.0,30.13,West,271,7.0,12.0,54,0.00,,,0.00,Wunderground v.1.12,2013-01-27 08:08:00,
2013-01-27 03:14:00,13.6,0.0,30.13,WNW,300,7.0,7.0,54,0.00,,,0.00,Wunderground v.1.12,2013-01-27 08:14:00,
2013-01-27 03:20:00,13.6,0.0,30.13,WNW,289,7.0,7.0,54,0.00,,,0.00,Wunderground v.1.12,2013-01-27 08:20:00,
2013-01-27 03:26:00,13.6,0.0,30.13,WNW,290,7.0,7.0,54,0.00,,,0.00,Wunderground v.1.12,2013-01-27 08:26:00,
2013-01-27 03:31:00,13.6,0.0,30.13,WNW,287,7.0,12.0,54,0.00,,,0.00,Wunderground v.1.12,2013-01-27 08:31:00,
2013-01-27 03:38:00,13.6,0.4,30.13,West,279,7.0,9.0,55,0.00,,,0.00,Wunderground v.1.12,2013-01-27 08:38:00,
2013-01-27 03:43:00,13.8,0.2,30.13,WNW,282,8.0,11.0,54,0.00,,,0.00,Wunderground v.1.12,2013-01-27 08:43:00,
2013-01-27 03:49:00,13.8,0.2,30.13,West,280,9.0,9.0,54,0.00,,,0.00,Wunderground v.1.12,2013-01-27 08:49:00,
2013-01-27 03:55:00,13.8,0.2,30.13,WNW,292,9.0,10.0,54,0.00,,,0.00,Wunderground v.1.12,2013-01-27 08:55:00,
2013-01-27 04:01:00,13.6,0.0,30.13,WNW,293,7.0,8.0,54,0.00,,,0.00,Wunderground v.1.12,2013-01-27 09:01:00,
2013-01-27 04:06:00,13.6,0.0,30.14,West,275,6.0,9.0,54,0.00,,,0.00,Wunderground v.1.12,2013-01-27 09:06:00,
2013-01-27 04:13:00,13.8,0.2,30.14,West,262,9.0,14.0,54,0.00,,,0.00,Wunderground v.1.12,2013-01-27 09:13:00,
2013-01-27 04:18:00,13.6,0.0,30.14,West,274,10.0,12.0,54,0.00,,,0.00,Wunderground v.1.12,2013-01-27 09:18:00,
2013-01-27 04:23:00,13.3,0.1,30.14,West,277,8.0,12.0,55,0.00,,,0.00,Wunderground v.1.12,2013-01-27 09:23:00,
2013-01-27 04:28:00,13.3,0.1,30.14,West,267,9.0,15.0,55,0.00,,,0.00,Wunderground v.1.12,2013-01-27 09:28:00,
2013-01-27 04:34:00,13.3,0.1,30.14,West,274,11.0,11.0,55,0.00,,,0.00,Wunderground v.1.12,2013-01-27 09:34:00,
2013-01-27 04:40:00,13.3,0.1,30.14,WNW,282,10.0,10.0,55,0.00,,,0.00,Wunderground v.1.12,2013-01-27 09:40:00,
2013-01-27 04:46:00,13.1,-0.1,30.14,West,281,8.0,11.0,55,0.00,,,0.00,Wunderground v.1.12,2013-01-27 09:46:00,
2013-01-27 04:51:00,13.1,-0.1,30.14,West,278,7.0,8.0,55,0.00,,,0.00,Wunderground v.1.12,2013-01-27 09:51:00,
2013-01-27 04:56:00,13.1,-0.1,30.14,West,276,7.0,11.0,55,0.00,,,0.00,Wunderground v.1.12,2013-01-27 09:56:00,
2013-01-27 05:03:00,13.1,-0.1,30.15,WNW,282,7.0,9.0,55,0.00,,,0.00,Wunderground v.1.12,2013-01-27 10:03:00,
2013-01-27 05:08:00,12.9,0.1,30.15,West,274,6.0,10.0,56,0.00,,,0.00,Wunderground v.1.12,2013-01-27 10:08:00,
2013-01-27 05:16:00,12.9,0.1,30.15,West,277,6.0,6.0,56,0.00,,,0.00,Wunderground v.1.12,2013-01-27 10:16:00,
2013-01-27 05:23:00,12.9,0.1,30.15,West,270,7.0,14.0,56,0.00,,,0.00,Wunderground v.1.12,2013-01-27 10:23:00,
2013-01-27 05:28:00,13.1,-0.1,30.15,WNW,290,9.0,9.0,55,0.00,,,0.00,Wunderground v.1.12,2013-01-27 10:28:00,
2013-01-27 05:33:00,13.1,-0.1,30.16,WNW,296,8.0,8.0,55,0.00,,,0.00,Wunderground v.1.12,2013-01-27 10:33:00,
2013-01-27 05:39:00,12.9,-0.3,30.16,West,259,7.0,9.0,55,0.00,,,0.00,Wunderground v.1.12,2013-01-27 10:39:00,
2013-01-27 05:45:00,12.9,-0.3,30.16,West,276,6.0,10.0,55,0.00,,,0.00,Wunderground v.1.12,2013-01-27 10:45:00,
2013-01-27 05:51:00,13.1,-0.1,30.17,WNW,286,7.0,8.0,55,0.00,,,0.00,Wunderground v.1.12,2013-01-27 10:51:00,
2013-01-27 05:56:00,13.1,-0.1,30.17,WNW,284,9.0,9.0,55,0.00,,,0.00,Wunderground v.1.12,2013-01-27 10:56:00,
2013-01-27 06:03:00,13.1,-0.5,30.17,WNW,286,8.0,9.0,54,0.00,,,0.00,Wunderground v.1.12,2013-01-27 11:03:00,
2013-01-27 06:08:00,12.9,-0.3,30.17,WNW,284,8.0,12.0,55,0.00,,,0.00,Wunderground v.1.12,2013-01-27 11:08:00,
2013-01-27 06:13:00,12.9,-0.3,30.17,WNW,302,8.0,13.0,55,0.00,,,0.00,Wunderground v.1.12,2013-01-27 11:13:00,
2013-01-27 06:19:00,12.8,0.0,30.17,West,276,9.0,10.0,56,0.00,,,0.00,Wunderground v.1.12,2013-01-27 11:19:00,
2013-01-27 06:25:00,12.8,-0.3,30.17,WNW,297,8.0,15.0,55,0.00,,,0.00,Wunderground v.1.12,2013-01-27 11:25:00,
2013-01-27 06:30:00,12.8,-0.3,30.17,WNW,286,8.0,9.0,55,0.00,,,0.00,Wunderground v.1.12,2013-01-27 11:30:00,
2013-01-27 06:35:00,12.8,-0.3,30.18,WNW,296,8.0,11.0,55,0.00,,,0.00,Wunderground v.1.12,2013-01-27 11:35:00,
2013-01-27 06:41:00,12.8,-0.7,30.18,WNW,284,8.0,10.0,54,0.00,,,0.00,Wunderground v.1.12,2013-01-27 11:41:00,
2013-01-27 06:46:00,12.8,-0.3,30.18,West,277,7.0,8.0,55,0.00,,,0.00,Wunderground v.1.12,2013-01-27 11:46:00,
2013-01-27 06:53:00,12.8,-0.7,30.19,WNW,293,8.0,18.0,54,0.00,,,0.00,Wunderground v.1.12,2013-01-27 11:53:00,
2013-01-27 06:58:00,12.6,-1.3,30.19,WNW,289,8.0,14.0,53,0.00,,,0.00,Wunderground v.1.12,2013-01-27 11:58:00,
2013-01-27 07:04:00,12.8,-1.1,30.19,WNW,284,8.0,8.0,53,0.00,,,0.00,Wunderground v.1.12,2013-01-27 12:04:00,
2013-01-27 07:10:00,12.6,-1.3,30.19,WNW,297,7.0,11.0,53,0.00,,,0.00,Wunderground v.1.12,2013-01-27 12:10:00,
2013-01-27 07:15:00,12.6,-1.7,30.19,WNW,302,7.0,11.0,52,0.00,,,0.00,Wunderground v.1.12,2013-01-27 12:15:00,
2013-01-27 07:20:00,12.8,-1.9,30.19,WNW,285,8.0,8.0,51,0.00,,,0.00,Wunderground v.1.12,2013-01-27 12:20:00,
2013-01-27 07:26:00,12.9,-1.9,30.19,West,275,8.0,9.0,51,0.00,,,0.00,Wunderground v.1.12,2013-01-27 12:26:00,
2013-01-27 07:33:00,12.8,-1.9,30.21,West,279,7.0,7.0,51,0.00,,,0.00,Wunderground v.1.12,2013-01-27 12:33:00,
2013-01-27 07:38:00,12.8,-1.9,30.21,WNW,290,6.0,7.0,51,0.00,,,0.00,Wunderground v.1.12,2013-01-27 12:38:00,
2013-01-27 07:43:00,12.9,-2.3,30.21,West,275,7.0,13.0,50,0.00,,,0.00,Wunderground v.1.12,2013-01-27 12:43:00,
2013-01-27 07:48:00,13.1,-2.1,30.20,WNW,290,8.0,14.0,50,0.00,,,0.00,Wunderground v.1.12,2013-01-27 12:48:00,
2013-01-27 07:53:00,13.1,-2.5,30.20,WNW,284,9.0,12.0,49,0.00,,,0.00,Wunderground v.1.12,2013-01-27 12:53:00,
2013-01-27 07:58:00,13.3,-2.8,30.20,WNW,289,10.0,10.0,48,0.00,,,0.00,Wunderground v.1.12,2013-01-27 12:58:00,
2013-01-27 08:04:00,13.5,-3.0,30.21,WNW,302,7.0,7.0,47,0.00,,,0.00,Wunderground v.1.12,2013-01-27 13:04:00,
2013-01-27 08:09:00,13.6,-2.9,30.21,West,275,7.0,13.0,47,0.00,,,0.00,Wunderground v.1.12,2013-01-27 13:09:00,
2013-01-27 08:15:00,14.0,-3.0,30.21,WNW,300,11.0,11.0,46,0.00,,,0.00,Wunderground v.1.12,2013-01-27 13:15:00,
2013-01-27 08:21:00,14.1,-3.4,30.22,NW,308,11.0,14.0,45,0.00,,,0.00,Wunderground v.1.12,2013-01-27 13:21:00,
2013-01-27 08:26:00,14.3,-3.7,30.22,NW,313,11.0,12.0,44,0.00,,,0.00,Wunderground v.1.12,2013-01-27 13:26:00,
2013-01-27 08:33:00,14.6,-2.9,30.22,West,273,10.0,11.0,45,0.00,,,0.00,Wunderground v.1.12,2013-01-27 13:33:00,
2013-01-27 08:38:00,14.8,-3.2,30.22,WNW,287,8.0,17.0,44,0.00,,,0.00,Wunderground v.1.12,2013-01-27 13:38:00,
2013-01-27 08:44:00,14.9,-3.1,30.22,WNW,287,8.0,8.0,44,0.00,,,0.00,Wunderground v.1.12,2013-01-27 13:44:00,
2013-01-27 08:50:00,15.1,-3.9,30.24,WNW,288,7.0,14.0,42,0.00,,,0.00,Wunderground v.1.12,2013-01-27 13:50:00,
2013-01-27 08:55:00,15.4,-4.1,30.24,WNW,289,8.0,9.0,41,0.00,,,0.00,Wunderground v.1.12,2013-01-27 13:55:00,
2013-01-27 09:00:00,15.6,-4.5,30.24,WNW,286,8.0,12.0,40,0.00,,,0.00,Wunderground v.1.12,2013-01-27 14:00:00,
2013-01-27 09:06:00,15.9,-4.7,30.25,WNW,292,10.0,12.0,39,0.00,,,0.00,Wunderground v.1.12,2013-01-27 14:06:00,
2013-01-27 09:11:00,16.1,-4.0,30.25,WNW,302,11.0,19.0,40,0.00,,,0.00,Wunderground v.1.12,2013-01-27 14:11:00,
2013-01-27 09:16:00,16.4,-4.3,30.25,West,275,10.0,11.0,39,0.00,,,0.00,Wunderground v.1.12,2013-01-27 14:16:00,
2013-01-27 09:21:00,16.7,-4.6,30.25,WNW,283,8.0,11.0,38,0.00,,,0.00,Wunderground v.1.12,2013-01-27 14:21:00,
2013-01-27 09:28:00,17.0,-4.8,30.25,West,278,7.0,14.0,37,0.00,,,0.00,Wunderground v.1.12,2013-01-27 14:28:00,
2013-01-27 09:33:00,17.2,-4.7,30.26,West,270,9.0,15.0,37,0.00,,,0.00,Wunderground v.1.12,2013-01-27 14:33:00,
2013-01-27 09:39:00,17.3,-4.0,30.26,WNW,285,8.0,11.0,38,0.00,,,0.00,Wunderground v.1.12,2013-01-27 14:39:00,
2013-01-27 09:44:00,17.7,-3.1,30.26,West,273,7.0,9.0,39,0.00,,,0.00,Wunderground v.1.12,2013-01-27 14:44:00,
2013-01-27 09:49:00,18.0,-4.5,30.25,West,277,8.0,10.0,36,0.00,,,0.00,Wunderground v.1.12,2013-01-27 14:49:00,
2013-01-27 09:55:00,18.1,-4.4,30.25,WNW,286,10.0,16.0,36,0.00,,,0.00,Wunderground v.1.12,2013-01-27 14:55:00,
2013-01-27 10:00:00,18.3,-4.2,30.25,West,273,9.0,10.0,36,0.00,,,0.00,Wunderground v.1.12,2013-01-27 15:00:00,
2013-01-27 10:05:00,18.6,-4.0,30.27,WNW,292,8.0,11.0,36,0.00,,,0.00,Wunderground v.1.12,2013-01-27 15:05:00,
2013-01-27 10:10:00,18.8,-3.2,30.27,West,269,9.0,9.0,37,0.00,,,0.00,Wunderground v.1.12,2013-01-27 15:10:00,
2013-01-27 10:16:00,19.2,-4.0,30.27,West,281,8.0,14.0,35,0.00,,,0.00,Wunderground v.1.12,2013-01-27 15:16:00,
2013-01-27 10:23:00,19.4,-2.7,30.27,West,270,8.0,19.0,37,0.00,,,0.00,Wunderground v.1.12,2013-01-27 15:23:00,
2013-01-27 10:28:00,19.7,-4.2,30.27,West,281,6.0,11.0,34,0.00,,,0.00,Wunderground v.1.12,2013-01-27 15:28:00,
2013-01-27 10:34:00,20.0,-2.7,30.27,WNW,283,8.0,8.0,36,0.00,,,0.00,Wunderground v.1.12,2013-01-27 15:34:00,
2013-01-27 10:39:00,20.3,-3.0,30.27,NW,309,7.0,7.0,35,0.00,,,0.00,Wunderground v.1.12,2013-01-27 15:39:00,
2013-01-27 10:45:00,20.8,-2.6,30.27,NW,304,5.0,5.0,35,0.00,,,0.00,Wunderground v.1.12,2013-01-27 15:45:00,
2013-01-27 10:51:00,20.8,-3.8,30.27,WNW,295,6.0,11.0,33,0.00,,,0.00,Wunderground v.1.12,2013-01-27 15:51:00,
2013-01-27 10:56:00,20.8,-3.2,30.27,WNW,288,8.0,12.0,34,0.00,,,0.00,Wunderground v.1.12,2013-01-27 15:56:00,
2013-01-27 11:03:00,21.1,-2.9,30.27,West,271,8.0,9.0,34,0.00,,,0.00,Wunderground v.1.12,2013-01-27 16:03:00,
2013-01-27 11:08:00,21.1,-3.6,30.27,WSW,246,6.0,12.0,33,0.00,,,0.00,Wunderground v.1.12,2013-01-27 16:08:00,
2013-01-27 11:14:00,21.3,-3.4,30.27,West,277,7.0,7.0,33,0.00,,,0.00,Wunderground v.1.12,2013-01-27 16:14:00,
2013-01-27 11:19:00,21.6,-3.1,30.27,WNW,284,7.0,7.0,33,0.00,,,0.00,Wunderground v.1.12,2013-01-27 16:19:00,
2013-01-27 11:24:00,21.8,-3.6,30.27,West,277,8.0,13.0,32,0.00,,,0.00,Wunderground v.1.12,2013-01-27 16:24:00,
2013-01-27 11:29:00,22.2,-2.0,30.27,WNW,286,9.0,9.0,34,0.00,,,0.00,Wunderground v.1.12,2013-01-27 16:29:00,
2013-01-27 11:35:00,23.0,-1.9,30.26,West,270,6.0,6.0,33,0.00,,,0.00,Wunderground v.1.12,2013-01-27 16:35:00,
2013-01-27 11:40:00,23.3,-1.6,30.26,West,281,5.0,7.0,33,0.00,,,0.00,Wunderground v.1.12,2013-01-27 16:40:00,
2013-01-27 11:45:00,22.9,-2.6,30.26,WNW,295,8.0,11.0,32,0.00,,,0.00,Wunderground v.1.12,2013-01-27 16:45:00,
2013-01-27 11:51:00,22.7,-2.8,30.25,WNW,288,10.0,17.0,32,0.00,,,0.00,Wunderground v.1.12,2013-01-27 16:51:00,
2013-01-27 11:56:00,23.0,-2.5,30.25,WNW,292,10.0,11.0,32,0.00,,,0.00,Wunderground v.1.12,2013-01-27 16:56:00,
2013-01-27 12:02:00,23.3,-1.0,30.25,West,279,9.0,9.0,34,0.00,,,0.00,Wunderground v.1.12,2013-01-27 17:02:00,
2013-01-27 12:08:00,23.6,-1.3,30.25,NW,319,9.0,9.0,33,0.00,,,0.00,Wunderground v.1.12,2013-01-27 17:08:00,
2013-01-27 12:13:00,23.9,-2.4,30.25,WSW,255,9.0,16.0,31,0.00,,,0.00,Wunderground v.1.12,2013-01-27 17:13:00,
2013-01-27 12:18:00,24.7,-1.7,30.24,West,278,9.0,9.0,31,0.00,,,0.00,Wunderground v.1.12,2013-01-27 17:18:00,
2013-01-27 12:23:00,24.2,-2.1,30.24,WSW,254,9.0,11.0,31,0.00,,,0.00,Wunderground v.1.12,2013-01-27 17:23:00,
2013-01-27 12:28:00,24.2,-1.5,30.24,West,279,11.0,13.0,32,0.00,,,0.00,Wunderground v.1.12,2013-01-27 17:28:00,
2013-01-27 12:34:00,25.1,-1.3,30.24,WNW,284,10.0,11.0,31,0.00,,,0.00,Wunderground v.1.12,2013-01-27 17:34:00,
2013-01-27 12:40:00,25.0,-2.1,30.24,NW,307,10.0,13.0,30,0.00,,,0.00,Wunderground v.1.12,2013-01-27 17:40:00,
2013-01-27 12:46:00,25.6,-1.6,30.24,WNW,292,8.0,8.0,30,0.00,,,0.00,Wunderground v.1.12,2013-01-27 17:46:00,
2013-01-27 12:51:00,26.0,-0.6,30.24,WNW,290,7.0,7.0,31,0.00,,,0.00,Wunderground v.1.12,2013-01-27 17:51:00,
2013-01-27 12:56:00,26.1,0.2,30.24,WNW,286,8.0,13.0,32,0.00,,,0.00,Wunderground v.1.12,2013-01-27 17:56:00,
2013-01-27 13:03:00,25.4,-2.5,30.24,WNW,286,11.0,15.0,29,0.00,,,0.00,Wunderground v.1.12,2013-01-27 18:03:00,
2013-01-27 13:08:00,25.8,-2.1,30.24,WNW,289,10.0,16.0,29,0.00,,,0.00,Wunderground v.1.12,2013-01-27 18:08:00,
2013-01-27 13:13:00,25.7,-3.0,30.24,West,267,10.0,20.0,28,0.00,,,0.00,Wunderground v.1.12,2013-01-27 18:13:00,
2013-01-27 13:19:00,26.0,-2.0,30.24,WNW,286,10.0,10.0,29,0.00,,,0.00,Wunderground v.1.12,2013-01-27 18:19:00,
2013-01-27 13:24:00,26.1,-1.2,30.24,West,275,10.0,12.0,30,0.00,,,0.00,Wunderground v.1.12,2013-01-27 18:24:00,
2013-01-27 13:29:00,26.0,-2.7,30.24,West,275,11.0,11.0,28,0.00,,,0.00,Wunderground v.1.12,2013-01-27 18:29:00,
2013-01-27 13:35:00,26.4,-1.6,30.24,WNW,287,10.0,17.0,29,0.00,,,0.00,Wunderground v.1.12,2013-01-27 18:35:00,
2013-01-27 13:40:00,26.6,-1.4,30.24,NW,309,8.0,8.0,29,0.00,,,0.00,Wunderground v.1.12,2013-01-27 18:40:00,
2013-01-27 13:46:00,26.7,-1.4,30.24,West,281,7.0,8.0,29,0.00,,,0.00,Wunderground v.1.12,2013-01-27 18:46:00,
2013-01-27 13:51:00,26.6,-2.2,30.23,WSW,250,9.0,12.0,28,0.00,,,0.00,Wunderground v.1.12,2013-01-27 18:51:00,
2013-01-27 13:58:00,26.4,-2.4,30.23,WNW,284,11.0,11.0,28,0.00,,,0.00,Wunderground v.1.12,2013-01-27 18:58:00,
2013-01-27 14:03:00,26.4,-1.6,30.24,West,277,12.0,20.0,29,0.00,,,0.00,Wunderground v.1.12,2013-01-27 19:03:00,
2013-01-27 14:08:00,26.9,-1.9,30.24,West,280,10.0,20.0,28,0.00,,,0.00,Wunderground v.1.12,2013-01-27 19:08:00,
2013-01-27 14:14:00,26.9,-1.2,30.24,NNW,329,10.0,10.0,29,0.00,,,0.00,Wunderground v.1.12,2013-01-27 19:14:00,
2013-01-27 14:20:00,27.0,-1.8,30.25,WNW,293,11.0,13.0,28,0.00,,,0.00,Wunderground v.1.12,2013-01-27 19:20:00,
2013-01-27 14:25:00,27.2,-1.7,30.25,NW,304,10.0,16.0,28,0.00,,,0.00,Wunderground v.1.12,2013-01-27 19:25:00,
2013-01-27 14:31:00,27.0,-1.8,30.25,West,277,10.0,15.0,28,0.00,,,0.00,Wunderground v.1.12,2013-01-27 19:31:00,
2013-01-27 14:36:00,27.3,0.6,30.24,West,277,9.0,11.0,31,0.00,,,0.00,Wunderground v.1.12,2013-01-27 19:36:00,
2013-01-27 14:43:00,27.3,-0.8,30.24,WNW,287,10.0,10.0,29,0.00,,,0.00,Wunderground v.1.12,2013-01-27 19:43:00,
2013-01-27 14:48:00,27.6,0.9,30.24,West,279,9.0,16.0,31,0.00,,,0.00,Wunderground v.1.12,2013-01-27 19:48:00,
2013-01-27 14:53:00,27.6,0.9,30.24,WNW,293,10.0,24.0,31,0.00,,,0.00,Wunderground v.1.12,2013-01-27 19:53:00,
2013-01-27 14:58:00,27.6,-0.6,30.24,NW,304,9.0,11.0,29,0.00,,,0.00,Wunderground v.1.12,2013-01-27 19:58:00,
2013-01-27 15:04:00,27.5,-1.4,30.24,WNW,284,9.0,9.0,28,0.00,,,0.00,Wunderground v.1.12,2013-01-27 20:04:00,
2013-01-27 15:09:00,27.5,-1.4,30.24,WNW,299,9.0,10.0,28,0.00,,,0.00,Wunderground v.1.12,2013-01-27 20:09:00,
2013-01-27 15:15:00,27.6,-0.6,30.24,West,273,8.0,8.0,29,0.00,,,0.00,Wunderground v.1.12,2013-01-27 20:15:00,
2013-01-27 15:21:00,27.6,-1.3,30.24,West,271,7.0,10.0,28,0.00,,,0.00,Wunderground v.1.12,2013-01-27 20:21:00,
2013-01-27 15:28:00,27.6,-0.6,30.24,NW,313,8.0,13.0,29,0.00,,,0.00,Wunderground v.1.12,2013-01-27 20:28:00,
2013-01-27 15:33:00,27.9,-1.1,30.25,West,281,5.0,8.0,28,0.00,,,0.00,Wunderground v.1.12,2013-01-27 20:33:00,
2013-01-27 15:38:00,28.1,-0.9,30.25,West,276,4.0,11.0,28,0.00,,,0.00,Wunderground v.1.12,2013-01-27 20:38:00,
2013-01-27 15:44:00,27.6,-1.3,30.25,West,277,7.0,7.0,28,0.00,,,0.00,Wunderground v.1.12,2013-01-27 20:44:00,
2013-01-27 15:50:00,27.3,-1.6,30.25,WNW,300,9.0,11.0,28,0.00,,,0.00,Wunderground v.1.12,2013-01-27 20:50:00,
2013-01-27 15:55:00,27.2,-2.4,30.25,West,279,8.0,9.0,27,0.00,,,0.00,Wunderground v.1.12,2013-01-27 20:55:00,
2013-01-27 16:01:00,27.2,-3.2,30.25,WNW,288,7.0,12.0,26,0.00,,,0.00,Wunderground v.1.12,2013-01-27 21:01:00,
2013-01-27 16:08:00,27.2,-1.7,30.26,NW,315,5.0,6.0,28,0.00,,,0.00,Wunderground v.1.12,2013-01-27 21:08:00,
2013-01-27 16:13:00,26.9,-2.7,30.26,WNW,292,4.0,6.0,27,0.00,,,0.00,Wunderground v.1.12,2013-01-27 21:13:00,
2013-01-27 16:19:00,26.9,-3.5,30.26,WNW,299,5.0,5.0,26,0.00,,,0.00,Wunderground v.1.12,2013-01-27 21:19:00,
2013-01-27 16:24:00,26.6,-3.0,30.26,NW,312,5.0,7.0,27,0.00,,,0.00,Wunderground v.1.12,2013-01-27 21:24:00,
2013-01-27 16:29:00,26.3,-5.7,30.26,NW,317,6.0,13.0,24,0.00,,,0.00,Wunderground v.1.12,2013-01-27 21:29:00,
2013-01-27 16:34:00,26.1,-6.7,30.27,WNW,294,8.0,14.0,23,0.00,,,0.00,Wunderground v.1.12,2013-01-27 21:34:00,
2013-01-27 16:39:00,26.0,-6.8,30.27,WNW,295,8.0,8.0,23,0.00,,,0.00,Wunderground v.1.12,2013-01-27 21:39:00,
2013-01-27 16:45:00,25.7,-6.2,30.27,NW,304,7.0,7.0,24,0.00,,,0.00,Wunderground v.1.12,2013-01-27 21:45:00,
2013-01-27 16:51:00,25.3,-6.5,30.27,West,280,6.0,6.0,24,0.00,,,0.00,Wunderground v.1.12,2013-01-27 21:51:00,
2013-01-27 16:56:00,25.3,-7.4,30.27,WNW,290,6.0,9.0,23,0.00,,,0.00,Wunderground v.1.12,2013-01-27 21:56:00,
2013-01-27 17:01:00,25.1,-8.5,30.27,WNW,285,6.0,7.0,22,0.00,,,0.00,Wunderground v.1.12,2013-01-27 22:01:00,
2013-01-27 17:08:00,25.0,-8.6,30.28,West,276,5.0,7.0,22,0.00,,,0.00,Wunderground v.1.12,2013-01-27 22:08:00,
2013-01-27 17:13:00,24.8,-9.7,30.28,WNW,284,6.0,13.0,21,0.00,,,0.00,Wunderground v.1.12,2013-01-27 22:13:00,
2013-01-27 17:18:00,24.8,-9.7,30.28,WNW,286,7.0,9.0,21,0.00,,,0.00,Wunderground v.1.12,2013-01-27 22:18:00,
2013-01-27 17:24:00,24.5,-9.9,30.28,WSW,256,6.0,6.0,21,0.00,,,0.00,Wunderground v.1.12,2013-01-27 22:24:00,
2013-01-27 17:29:00,24.4,-9.1,30.28,West,269,6.0,6.0,22,0.00,,,0.00,Wunderground v.1.12,2013-01-27 22:29:00,
2013-01-27 17:35:00,24.1,-9.3,30.29,WNW,300,6.0,6.0,22,0.00,,,0.00,Wunderground v.1.12,2013-01-27 22:35:00,
2013-01-27 17:40:00,24.1,-9.3,30.29,WNW,283,6.0,6.0,22,0.00,,,0.00,Wunderground v.1.12,2013-01-27 22:40:00,
2013-01-27 17:45:00,24.1,-8.4,30.29,West,278,7.0,12.0,23,0.00,,,0.00,Wunderground v.1.12,2013-01-27 22:45:00,
2013-01-27 17:51:00,23.9,-8.6,30.30,WNW,299,7.0,8.0,23,0.00,,,0.00,Wunderground v.1.12,2013-01-27 22:51:00,
2013-01-27 17:58:00,23.6,-8.0,30.30,NW,304,6.0,9.0,24,0.00,,,0.00,Wunderground v.1.12,2013-01-27 22:58:00,
2013-01-27 18:03:00,23.5,-8.1,30.30,WNW,288,5.0,13.0,24,0.00,,,0.00,Wunderground v.1.12,2013-01-27 23:03:00,
2013-01-27 18:09:00,23.5,-8.9,30.30,WNW,285,6.0,7.0,23,0.00,,,0.00,Wunderground v.1.12,2013-01-27 23:09:00,
2013-01-27 18:14:00,23.5,-8.1,30.30,WSW,239,7.0,7.0,24,0.00,,,0.00,Wunderground v.1.12,2013-01-27 23:14:00,
2013-01-27 18:20:00,23.3,-7.4,30.31,WNW,285,7.0,7.0,25,0.00,,,0.00,Wunderground v.1.12,2013-01-27 23:20:00,
2013-01-27 18:26:00,23.3,-7.4,30.31,NW,307,7.0,11.0,25,0.00,,,0.00,Wunderground v.1.12,2013-01-27 23:26:00,
2013-01-27 18:33:00,23.2,-9.2,30.31,WSW,257,7.0,14.0,23,0.00,,,0.00,Wunderground v.1.12,2013-01-27 23:33:00,
2013-01-27 18:38:00,23.0,-7.7,30.31,WNW,300,8.0,12.0,25,0.00,,,0.00,Wunderground v.1.12,2013-01-27 23:38:00,
2013-01-27 18:46:00,22.9,-6.9,30.31,West,271,7.0,7.0,26,0.00,,,0.00,Wunderground v.1.12,2013-01-27 23:46:00,
2013-01-27 18:53:00,22.7,-7.9,30.31,West,270,7.0,20.0,25,0.00,,,0.00,Wunderground v.1.12,2013-01-27 23:53:00,
2013-01-27 18:58:00,22.5,-8.9,30.31,WNW,283,6.0,12.0,24,0.00,,,0.00,Wunderground v.1.12,2013-01-27 23:58:00,
2013-01-27 19:03:00,22.5,-8.1,30.32,NW,306,7.0,9.0,25,0.00,,,0.00,Wunderground v.1.12,2013-01-28 00:03:00,
2013-01-27 19:08:00,22.2,-8.4,30.32,West,271,5.0,8.0,25,0.00,,,0.00,Wunderground v.1.12,2013-01-28 00:08:00,
2013-01-27 19:14:00,22.1,-9.3,30.32,WNW,294,5.0,9.0,24,0.00,,,0.00,Wunderground v.1.12,2013-01-28 00:14:00,
2013-01-27 19:19:00,21.9,-7.8,30.32,NW,311,5.0,5.0,26,0.00,,,0.00,Wunderground v.1.12,2013-01-28 00:19:00,
2013-01-27 19:25:00,22.1,-9.3,30.32,West,281,5.0,14.0,24,0.00,,,0.00,Wunderground v.1.12,2013-01-28 00:25:00,
2013-01-27 19:30:00,21.9,-10.3,30.32,WNW,298,7.0,9.0,23,0.00,,,0.00,Wunderground v.1.12,2013-01-28 00:30:00,
2013-01-27 19:35:00,21.8,-8.7,30.32,West,263,7.0,10.0,25,0.00,,,0.00,Wunderground v.1.12,2013-01-28 00:35:00,
2013-01-27 19:41:00,21.3,-10.0,30.32,NW,304,6.0,6.0,24,0.00,,,0.00,Wunderground v.1.12,2013-01-28 00:41:00,
2013-01-27 19:46:00,21.3,-10.0,30.32,West,275,6.0,10.0,24,0.00,,,0.00,Wunderground v.1.12,2013-01-28 00:46:00,
2013-01-27 19:53:00,21.3,-9.1,30.33,WNW,293,6.0,16.0,25,0.00,,,0.00,Wunderground v.1.12,2013-01-28 00:53:00,
2013-01-27 19:58:00,21.3,-10.8,30.33,WNW,290,7.0,12.0,23,0.00,,,0.00,Wunderground v.1.12,2013-01-28 00:58:00,
2013-01-27 20:03:00,21.3,-10.8,30.33,West,279,7.0,15.0,23,0.00,,,0.00,Wunderground v.1.12,2013-01-28 01:03:00,
2013-01-27 20:08:00,21.1,-9.3,30.33,West,278,6.0,7.0,25,0.00,,,0.00,Wunderground v.1.12,2013-01-28 01:08:00,
2013-01-27 20:14:00,21.0,-11.1,30.33,West,281,5.0,5.0,23,0.00,,,0.00,Wunderground v.1.12,2013-01-28 01:14:00,
2013-01-27 20:20:00,20.8,-9.6,30.31,WNW,286,6.0,7.0,25,0.00,,,0.00,Wunderground v.1.12,2013-01-28 01:20:00,
2013-01-27 20:25:00,20.6,-10.6,30.31,WNW,287,5.0,15.0,24,0.00,,,0.00,Wunderground v.1.12,2013-01-28 01:25:00,
2013-01-27 20:31:00,20.8,-11.3,30.31,NW,320,7.0,9.0,23,0.00,,,0.00,Wunderground v.1.12,2013-01-28 01:31:00,
2013-01-27 20:36:00,20.6,-11.4,30.32,NW,307,7.0,10.0,23,0.00,,,0.00,Wunderground v.1.12,2013-01-28 01:36:00,
2013-01-27 20:43:00,20.6,-11.4,30.32,West,281,7.0,9.0,23,0.00,,,0.00,Wunderground v.1.12,2013-01-28 01:43:00,
2013-01-27 20:48:00,20.5,-10.6,30.32,WNW,300,6.0,11.0,24,0.00,,,0.00,Wunderground v.1.12,2013-01-28 01:48:00,
2013-01-27 20:53:00,20.2,-10.1,30.32,WNW,300,3.0,7.0,25,0.00,,,0.00,Wunderground v.1.12,2013-01-28 01:53:00,
2013-01-27 20:58:00,19.9,-9.5,30.32,WNW,297,3.0,6.0,26,0.00,,,0.00,Wunderground v.1.12,2013-01-28 01:58:00,
2013-01-27 21:04:00,19.5,-9.9,30.32,WNW,298,2.0,2.0,26,0.00,,,0.00,Wunderground v.1.12,2013-01-28 02:04:00,
2013-01-27 21:10:00,19.4,-9.2,30.32,WNW,286,2.0,7.0,27,0.00,,,0.00,Wunderground v.1.12,2013-01-28 02:10:00,
2013-01-27 21:16:00,19.2,-9.4,30.32,WNW,287,2.0,3.0,27,0.00,,,0.00,Wunderground v.1.12,2013-01-28 02:16:00,
2013-01-27 21:23:00,19.2,-9.4,30.32,WNW,293,2.0,12.0,27,0.00,,,0.00,Wunderground v.1.12,2013-01-28 02:23:00,
2013-01-27 21:28:00,19.1,-9.5,30.32,WNW,288,3.0,3.0,27,0.00,,,0.00,Wunderground v.1.12,2013-01-28 02:28:00,
2013-01-27 21:33:00,18.9,-8.9,30.31,WNW,286,3.0,5.0,28,0.00,,,0.00,Wunderground v.1.12,2013-01-28 02:33:00,
2013-01-27 21:39:00,19.1,-9.5,30.31,WNW,294,3.0,6.0,27,0.00,,,0.00,Wunderground v.1.12,2013-01-28 02:39:00,
2013-01-27 21:45:00,18.9,-9.6,30.31,WNW,294,2.0,2.0,27,0.00,,,0.00,Wunderground v.1.12,2013-01-28 02:45:00,
2013-01-27 21:50:00,18.9,-9.6,30.31,WNW,294,1.0,1.0,27,0.00,,,0.00,Wunderground v.1.12,2013-01-28 02:50:00,
2013-01-27 21:55:00,18.9,-8.9,30.31,WNW,294,1.0,1.0,28,0.00,,,0.00,Wunderground v.1.12,2013-01-28 02:55:00,
2013-01-27 22:01:00,18.6,-9.2,30.31,WNW,294,0.0,1.0,28,0.00,,,0.00,Wunderground v.1.12,2013-01-28 03:01:00,
2013-01-27 22:08:00,18.3,-9.4,30.32,WNW,294,0.0,0.0,28,0.00,,,0.00,Wunderground v.1.12,2013-01-28 03:08:00,
2013-01-27 22:13:00,18.0,-9.7,30.32,WNW,294,1.0,2.0,28,0.00,,,0.00,Wunderground v.1.12,2013-01-28 03:13:00,
2013-01-27 22:18:00,18.0,-8.3,30.32,WNW,294,2.0,2.0,30,0.00,,,0.00,Wunderground v.1.12,2013-01-28 03:18:00,
2013-01-27 22:24:00,18.0,-9.7,30.32,WNW,294,1.0,1.0,28,0.00,,,0.00,Wunderground v.1.12,2013-01-28 03:24:00,
2013-01-27 22:29:00,18.0,-9.7,30.32,WNW,294,1.0,1.0,28,0.00,,,0.00,Wunderground v.1.12,2013-01-28 03:29:00,
2013-01-27 22:34:00,18.0,-9.7,30.33,WNW,294,1.0,1.0,28,0.00,,,0.00,Wunderground v.1.12,2013-01-28 03:34:00,
2013-01-27 22:40:00,17.7,-10.0,30.33,WNW,294,1.0,2.0,28,0.00,,,0.00,Wunderground v.1.12,2013-01-28 03:40:00,
2013-01-27 22:46:00,17.2,-9.0,30.33,WNW,294,2.0,4.0,30,0.00,,,0.00,Wunderground v.1.12,2013-01-28 03:46:00,
2013-01-27 22:53:00,17.2,-9.7,30.34,WNW,293,1.0,5.0,29,0.00,,,0.00,Wunderground v.1.12,2013-01-28 03:53:00,
2013-01-27 22:58:00,16.9,-9.2,30.34,WNW,294,1.0,2.0,30,0.00,,,0.00,Wunderground v.1.12,2013-01-28 03:58:00,
2013-01-27 23:04:00,17.0,-9.2,30.34,WNW,294,1.0,2.0,30,0.00,,,0.00,Wunderground v.1.12,2013-01-28 04:04:00,
2013-01-27 23:10:00,16.9,-9.2,30.34,WNW,294,2.0,2.0,30,0.00,,,0.00,Wunderground v.1.12,2013-01-28 04:10:00,
2013-01-27 23:15:00,16.9,-8.6,30.34,WNW,294,2.0,2.0,31,0.00,,,0.00,Wunderground v.1.12,2013-01-28 04:15:00,
2013-01-27 23:21:00,16.9,-8.6,30.35,WNW,294,1.0,1.0,31,0.00,,,0.00,Wunderground v.1.12,2013-01-28 04:21:00,
2013-01-27 23:26:00,16.7,-8.8,30.35,WNW,294,1.0,1.0,31,0.00,,,0.00,Wunderground v.1.12,2013-01-28 04:26:00,
2013-01-27 23:33:00,16.4,-7.1,30.35,WNW,294,1.0,3.0,34,0.00,,,0.00,Wunderground v.1.12,2013-01-28 04:33:00,
2013-01-27 23:38:00,16.2,-6.7,30.35,WNW,294,2.0,5.0,35,0.00,,,0.00,Wunderground v.1.12,2013-01-28 04:38:00,
2013-01-27 23:44:00,16.2,-6.7,30.35,WNW,294,2.0,2.0,35,0.00,,,0.00,Wunderground v.1.12,2013-01-28 04:44:00,
2013-01-27 23:50:00,16.4,-7.1,30.35,WNW,294,2.0,4.0,34,0.00,,,0.00,Wunderground v.1.12,2013-01-28 04:50:00,
2013-01-27 23:56:00,16.5,-7.7,30.35,WNW,294,2.0,2.0,33,0.00,,,0.00,Wunderground v.1.12,2013-01-28 04:56:00,